• In Belarus
  • List of Countries
  • For 7 days
  • Water Temperature
  • Satellite Maps
  • Weather Map
  • Weather Widgets
  • user-avatar
    Login

    Hourly Weather Barra

    Today, 27 June, Tuesday

    Time Temperature Precipitation Wind Pressure Humidity
    00:00 +20°C° 0 mm 4 mps 752 mmHg 90%
    01:00 +20°C° 0 mm 4 mps 752 mmHg 90%
    02:00 +20°C° 0 mm 4 mps 752 mmHg 89%
    03:00 +20°C° 0 mm 4 mps 752 mmHg 89%
    04:00 +20°C° 0 mm 3 mps 752 mmHg 89%
    05:00 +20°C° 0 mm 3 mps 752 mmHg 89%
    06:00 +20°C° 0 mm 4 mps 752 mmHg 89%
    07:00 +20°C° 0 mm 4 mps 752 mmHg 89%
    08:00 +20°C° 0 mm 4 mps 752 mmHg 86%
    09:00 +21°C° 0 mm 4 mps 752 mmHg 83%
    10:00 +22°C° 0 mm 3 mps 753 mmHg 83%
    11:00 +22°C° 0.1 mm 3 mps 752 mmHg 83%
    12:00 +22°C° 0.1 mm 3 mps 752 mmHg 83%
    13:00 +22°C° 0.1 mm 3 mps 752 mmHg 84%
    14:00 +22°C° 0.1 mm 3 mps 752 mmHg 84%
    15:00 +22°C° 0.1 mm 4 mps 752 mmHg 85%
    16:00 +22°C° 0.1 mm 4 mps 751 mmHg 85%
    17:00 +22°C° 0 mm 4 mps 752 mmHg 87%
    18:00 +21°C° 0 mm 4 mps 752 mmHg 90%
    19:00 +21°C° 0 mm 4 mps 752 mmHg 92%
    20:00 +21°C° 0.1 mm 4 mps 752 mmHg 93%
    21:00 +21°C° 0.1 mm 4 mps 752 mmHg 94%
    22:00 +20°C° 0 mm 4 mps 753 mmHg 97%
    23:00 +20°C° 0.3 mm 4 mps 753 mmHg 97%

    Tomorrow, 28 June, Wednesday

    Time Temperature Precipitation Wind Pressure Humidity
    00:00 +20°C° 0.3 mm 4 mps 752 mmHg 96%
    01:00 +20°C° 0.3 mm 4 mps 752 mmHg 96%
    02:00 +20°C° 0.3 mm 4 mps 752 mmHg 97%
    03:00 +20°C° 0.3 mm 4 mps 752 mmHg 97%
    04:00 +19°C° 0.3 mm 3 mps 752 mmHg 97%
    05:00 +19°C° 0.2 mm 3 mps 752 mmHg 97%
    06:00 +19°C° 0.2 mm 3 mps 752 mmHg 97%
    07:00 +19°C° 0.2 mm 3 mps 752 mmHg 97%
    08:00 +20°C° 0.1 mm 3 mps 752 mmHg 93%
    09:00 +22°C° 0.1 mm 3 mps 752 mmHg 88%
    10:00 +24°C° 0.1 mm 3 mps 753 mmHg 83%
    11:00 +25°C° 0.2 mm 3 mps 752 mmHg 81%
    12:00 +25°C° 0.2 mm 3 mps 752 mmHg 79%
    13:00 +26°C° 0.2 mm 3 mps 752 mmHg 77%
    14:00 +25°C° 0.2 mm 3 mps 751 mmHg 79%
    15:00 +25°C° 0.2 mm 4 mps 751 mmHg 80%
    16:00 +25°C° 0.2 mm 4 mps 751 mmHg 82%
    17:00 +22°C° 0.2 mm 4 mps 751 mmHg 87%
    18:00 +21°C° 0.2 mm 3 mps 752 mmHg 92%
    19:00 +20°C° 0.2 mm 3 mps 752 mmHg 96%
    20:00 +20°C° 0.1 mm 3 mps 752 mmHg 96%
    21:00 +20°C° 0.1 mm 3 mps 752 mmHg 96%
    22:00 +21°C° 0.1 mm 3 mps 753 mmHg 96%
    23:00 +21°C° 0.2 mm 3 mps 752 mmHg 96%

    Day after tomorrow, 29 June, Thursday

    Time Temperature Precipitation Wind Pressure Humidity
    00:00 +21°C° 0.2 mm 3 mps 752 mmHg 96%
    01:00 +21°C° 0.2 mm 3 mps 752 mmHg 95%
    02:00 +21°C° 0.3 mm 3 mps 752 mmHg 96%
    03:00 +21°C° 0.3 mm 3 mps 752 mmHg 96%
    04:00 +21°C° 0.3 mm 3 mps 751 mmHg 97%
    05:00 +21°C° 0.2 mm 3 mps 751 mmHg 97%
    06:00 +21°C° 0.2 mm 3 mps 752 mmHg 97%
    07:00 +21°C° 0.2 mm 3 mps 752 mmHg 97%
    08:00 +21°C° 0.1 mm 3 mps 752 mmHg 94%
    09:00 +22°C° 0.1 mm 3 mps 752 mmHg 92%
    10:00 +22°C° 0.1 mm 3 mps 753 mmHg 89%
    11:00 +24°C° 0.2 mm 3 mps 752 mmHg 86%
    12:00 +25°C° 0.2 mm 3 mps 752 mmHg 83%
    13:00 +25°C° 0.2 mm 3 mps 751 mmHg 79%
    14:00 +25°C° 0.2 mm 3 mps 751 mmHg 80%
    15:00 +25°C° 0.2 mm 3 mps 750 mmHg 81%
    16:00 +25°C° 0.2 mm 3 mps 750 mmHg 82%
    17:00 +22°C° 0.1 mm 3 mps 751 mmHg 86%
    18:00 +21°C° 0.1 mm 3 mps 751 mmHg 90%
    19:00 +20°C° 0.1 mm 3 mps 751 mmHg 95%
    20:00 +20°C° 0.1 mm 3 mps 752 mmHg 94%
    21:00 +20°C° 0.1 mm 2 mps 752 mmHg 94%
    22:00 +21°C° 0.1 mm 2 mps 752 mmHg 94%
    23:00 +21°C° 0.1 mm 2 mps 752 mmHg 94%

    30 June, Friday

    Time Temperature Precipitation Wind Pressure Humidity
    00:00 +20°C° 0.1 mm 2 mps 751 mmHg 94%
    01:00 +20°C° 0.1 mm 3 mps 751 mmHg 94%
    02:00 +20°C° 0 mm 3 mps 751 mmHg 94%
    03:00 +20°C° 0 mm 3 mps 751 mmHg 95%
    04:00 +20°C° 0 mm 3 mps 750 mmHg 95%
    05:00 +20°C° 0.1 mm 3 mps 751 mmHg 95%
    06:00 +19°C° 0.1 mm 3 mps 751 mmHg 95%
    07:00 +19°C° 0.1 mm 4 mps 751 mmHg 95%
    08:00 +21°C° 0.1 mm 4 mps 752 mmHg 88%
    09:00 +22°C° 0.1 mm 4 mps 752 mmHg 82%
    10:00 +25°C° 0.1 mm 4 mps 752 mmHg 75%
    11:00 +25°C° 0.1 mm 4 mps 752 mmHg 72%
    12:00 +26°C° 0.1 mm 4 mps 751 mmHg 70%
    13:00 +27°C° 0.1 mm 4 mps 751 mmHg 67%
    14:00 +26°C° 0 mm 4 mps 751 mmHg 68%
    15:00 +26°C° 0 mm 4 mps 751 mmHg 69%
    16:00 +26°C° 0 mm 4 mps 750 mmHg 70%
    17:00 +23°C° 0 mm 4 mps 751 mmHg 76%
    18:00 +22°C° 0 mm 3 mps 751 mmHg 82%
    19:00 +21°C° 0 mm 3 mps 752 mmHg 88%
    20:00 +21°C° 0.1 mm 3 mps 752 mmHg 89%
    21:00 +21°C° 0.1 mm 4 mps 753 mmHg 89%
    22:00 +21°C° 0.1 mm 4 mps 753 mmHg 89%
    23:00 +21°C° 0.3 mm 4 mps 753 mmHg 91%

    1 July, Saturday

    Time Temperature Precipitation Wind Pressure Humidity
    00:00 +21°C° 0.3 mm 5 mps 752 mmHg 92%
    01:00 +21°C° 0.3 mm 5 mps 752 mmHg 94%
    02:00 +21°C° 0.3 mm 5 mps 752 mmHg 94%
    03:00 +21°C° 0.3 mm 5 mps 752 mmHg 95%
    04:00 +20°C° 0.3 mm 5 mps 751 mmHg 95%
    05:00 +20°C° 0.3 mm 5 mps 752 mmHg 95%
    06:00 +20°C° 0.3 mm 5 mps 752 mmHg 95%
    07:00 +20°C° 0.3 mm 5 mps 752 mmHg 95%
    08:00 +20°C° 0.3 mm 5 mps 753 mmHg 95%
    09:00 +20°C° 0.3 mm 5 mps 753 mmHg 94%
    10:00 +20°C° 0.3 mm 5 mps 754 mmHg 94%
    11:00 +21°C° 0.4 mm 5 mps 753 mmHg 94%
    12:00 +21°C° 0.4 mm 5 mps 753 mmHg 93%
    13:00 +21°C° 0.4 mm 5 mps 752 mmHg 93%
    14:00 +21°C° 0.3 mm 5 mps 752 mmHg 93%
    15:00 +21°C° 0.3 mm 5 mps 752 mmHg 92%
    16:00 +21°C° 0.3 mm 5 mps 751 mmHg 92%
    17:00 +21°C° 0.2 mm 5 mps 752 mmHg 93%
    18:00 +21°C° 0.2 mm 5 mps 752 mmHg 94%
    19:00 +21°C° 0.2 mm 5 mps 752 mmHg 95%
    20:00 +21°C° 0.3 mm 5 mps 753 mmHg 95%
    21:00 +21°C° 0.3 mm 5 mps 753 mmHg 95%
    22:00 +21°C° 0.3 mm 5 mps 753 mmHg 96%
    23:00 +21°C° 0.5 mm 5 mps 753 mmHg 96%

    2 July, Sunday

    Time Temperature Precipitation Wind Pressure Humidity
    00:00 +21°C° 0.5 mm 4 mps 753 mmHg 97%
    01:00 +21°C° 0.5 mm 4 mps 752 mmHg 97%
    02:00 +20°C° 0.4 mm 4 mps 752 mmHg 97%
    03:00 +20°C° 0.4 mm 4 mps 752 mmHg 97%
    04:00 +20°C° 0.4 mm 4 mps 752 mmHg 97%
    05:00 +20°C° 0.3 mm 4 mps 752 mmHg 97%
    06:00 +20°C° 0.3 mm 4 mps 752 mmHg 97%
    07:00 +20°C° 0.3 mm 4 mps 753 mmHg 97%
    08:00 +21°C° 0.3 mm 4 mps 753 mmHg 95%
    09:00 +21°C° 0.3 mm 4 mps 753 mmHg 94%
    10:00 +22°C° 0.3 mm 4 mps 754 mmHg 92%
    11:00 +22°C° 0.2 mm 4 mps 753 mmHg 90%
    12:00 +23°C° 0.2 mm 4 mps 752 mmHg 88%
    13:00 +23°C° 0.2 mm 4 mps 752 mmHg 86%
    14:00 +23°C° 0.3 mm 4 mps 752 mmHg 86%
    15:00 +23°C° 0.3 mm 4 mps 752 mmHg 87%
    16:00 +23°C° 0.3 mm 4 mps 751 mmHg 87%
    17:00 +22°C° 0.2 mm 4 mps 752 mmHg 90%
    18:00 +22°C° 0.2 mm 4 mps 752 mmHg 93%
    19:00 +21°C° 0.2 mm 4 mps 753 mmHg 96%
    20:00 +21°C° 0.3 mm 4 mps 753 mmHg 96%
    21:00 +21°C° 0.3 mm 4 mps 753 mmHg 96%
    22:00 +21°C° 0.3 mm 4 mps 753 mmHg 96%
    23:00 +21°C° 0.3 mm 4 mps 753 mmHg 97%
    Show more